Location: Dęblin
(51.5600°N, 21.8563°E)
Time: 22:42:33
(UTC+01:00)

ISS - Visible Passes

Search period start: 23 January 2019 00:00
Search period end: 02 February 2019 00:00
Orbit: 404 x 410 km, 51.6° (Epoch: 24 January)

Date Brightness Start Highest point End Pass type
(mag) Time Alt. Az. Time Alt. Az. Time Alt. Az.
23 Jan -1.2 18:40:16 10° SSW 18:41:05 15° SSW 18:41:05 15° SSW visible
24 Jan -2.0 17:49:33 10° S 17:51:57 19° SE 17:52:03 19° SE visible
25 Jan -1.4 16:59:24 10° SSE 17:00:49 12° SE 17:02:15 10° ESE visible
25 Jan -2.4 18:33:34 10° SW 18:35:41 32° SSW 18:35:41 32° SSW visible
26 Jan -2.8 17:42:29 10° SW 17:45:29 33° SSE 17:46:30 26° ESE visible
26 Jan -0.8 19:18:30 10° WSW 19:19:14 16° WSW 19:19:14 16° WSW visible
27 Jan -2.1 16:51:36 10° SSW 16:54:14 22° SE 16:56:54 10° E visible
27 Jan -3.4 18:27:08 10° WSW 18:30:00 59° SW 18:30:00 59° SW visible
28 Jan -3.4 17:35:50 10° WSW 17:39:04 54° SSE 17:40:43 25° E visible
28 Jan -1.1 19:12:14 10° W 19:13:26 21° W 19:13:26 21° W visible
29 Jan -3.9 18:20:48 10° W 18:24:07 89° SSE 18:24:07 89° SSE visible
30 Jan -3.8 17:29:23 10° WSW 17:32:41 78° S 17:34:47 21° E visible
30 Jan -1.5 19:05:55 10° W 19:07:30 26° W 19:07:30 26° W visible
31 Jan -4.0 18:14:28 10° W 18:17:47 86° N 18:18:09 68° E visible
01 Feb -3.8 17:23:00 10° W 17:26:18 88° NNW 17:28:49 16° E visible
01 Feb -2.0 18:59:33 10° W 19:01:32 33° W 19:01:32 33° W visible
